Index of /20260411/WXO-DD/model_gdps/15km/00/005
Name Last modified Size Description
Parent Directory -
20260411T00Z_MSC_GDPS_AirTemp_AGL-120m_LatLon0.15_PT005H.grib2 2026-04-11 04:00 893K
20260411T00Z_MSC_GDPS_AirTemp_AGL-2m_LatLon0.15_PT005H.grib2 2026-04-11 04:00 1.0M
20260411T00Z_MSC_GDPS_AirTemp_AGL-40m_LatLon0.15_PT005H.grib2 2026-04-11 04:00 916K
20260411T00Z_MSC_GDPS_AirTemp_AGL-80m_LatLon0.15_PT005H.grib2 2026-04-11 04:00 903K
20260411T00Z_MSC_GDPS_Albedo_Sfc_LatLon0.15_PT005H.grib2 2026-04-11 04:00 247K
20260411T00Z_MSC_GDPS_ConvectivePrecip-Accum_Sfc_LatLon0.15_PT005H.grib2 2026-04-11 04:00 1.4M
20260411T00Z_MSC_GDPS_DewPointDepression_AGL-2m_LatLon0.15_PT005H.grib2 2026-04-11 04:00 745K
20260411T00Z_MSC_GDPS_DewPoint_AGL-2m_LatLon0.15_PT005H.grib2 2026-04-11 04:00 601K
20260411T00Z_MSC_GDPS_DownwardLongwaveRadiationFlux-Accum_Sfc_LatLon0.15_PT005H.grib2 2026-04-11 04:00 1.0M
20260411T00Z_MSC_GDPS_DownwardShortwaveRadiationFlux-Accum_Sfc_LatLon0.15_PT005H.grib2 2026-04-11 04:00 718K
20260411T00Z_MSC_GDPS_FreezingRain-Accum1h_Sfc_LatLon0.15_PT005H.grib2 2026-04-11 04:00 15K
20260411T00Z_MSC_GDPS_FreezingRain-Accum_Sfc_LatLon0.15_PT005H.grib2 2026-04-11 04:00 48K
20260411T00Z_MSC_GDPS_IcePellets-Accum1h_Sfc_LatLon0.15_PT005H.grib2 2026-04-11 04:00 6.6K
20260411T00Z_MSC_GDPS_IcePellets-Accum_Sfc_LatLon0.15_PT005H.grib2 2026-04-11 04:00 12K
20260411T00Z_MSC_GDPS_LatentHeatNetFlux_Sfc_LatLon0.15_PT005H.grib2 2026-04-11 04:00 503K
20260411T00Z_MSC_GDPS_NetLongwaveRadiationFlux-Accum_Sfc_LatLon0.15_PT005H.grib2 2026-04-11 04:00 1.4M
20260411T00Z_MSC_GDPS_NetShortwaveRadiationFlux-Accum_Sfc_LatLon0.15_PT005H.grib2 2026-04-11 04:00 669K
20260411T00Z_MSC_GDPS_O3MixingRatio_LatLon0.15_PT005H.grib2 2026-04-11 05:05 2.1M
20260411T00Z_MSC_GDPS_O3_EAtm_LatLon0.15_PT005H.grib2 2026-04-11 05:05 2.1M
20260411T00Z_MSC_GDPS_PlanetaryBoundaryLayerHeight_Sfc_LatLon0.15_PT005H.grib2 2026-04-11 04:00 2.4M
20260411T00Z_MSC_GDPS_Precip-Accum1h_Sfc_LatLon0.15_PT005H.grib2 2026-04-11 04:00 3.1M
20260411T00Z_MSC_GDPS_Precip-Accum_Sfc_LatLon0.15_PT005H.grib2 2026-04-11 04:00 3.5M
20260411T00Z_MSC_GDPS_PrecipRate_Sfc_LatLon0.15_PT005H.grib2 2026-04-11 04:00 2.8M
20260411T00Z_MSC_GDPS_Pressure_MSL_LatLon0.15_PT005H.grib2 2026-04-11 04:00 716K
20260411T00Z_MSC_GDPS_Pressure_Sfc_LatLon0.15_PT005H.grib2 2026-04-11 04:00 1.1M
20260411T00Z_MSC_GDPS_RadiativeTemp_Sfc_LatLon0.15_PT005H.grib2 2026-04-11 04:00 656K
20260411T00Z_MSC_GDPS_Rain-Accum1h_Sfc_LatLon0.15_PT005H.grib2 2026-04-11 04:00 1.5M
20260411T00Z_MSC_GDPS_Rain-Accum_Sfc_LatLon0.15_PT005H.grib2 2026-04-11 04:00 2.4M
20260411T00Z_MSC_GDPS_RelativeHumidity_AGL-2m_LatLon0.15_PT005H.grib2 2026-04-11 04:00 1.0M
20260411T00Z_MSC_GDPS_Runoff-Accum_Sfc_LatLon0.15_PT005H.grib2 2026-04-11 04:00 34K
20260411T00Z_MSC_GDPS_SensibleHeatNetFlux_Sfc_LatLon0.15_PT005H.grib2 2026-04-11 04:00 461K
20260411T00Z_MSC_GDPS_Snow-Accum1h_Sfc_LatLon0.15_PT005H.grib2 2026-04-11 04:00 831K
20260411T00Z_MSC_GDPS_Snow-Accum_Sfc_LatLon0.15_PT005H.grib2 2026-04-11 04:00 1.5M
20260411T00Z_MSC_GDPS_SnowDepth_Sfc_LatLon0.15_PT005H.grib2 2026-04-11 04:00 1.8M
20260411T00Z_MSC_GDPS_SoilTemp_DBS-0to10cm_LatLon0.15_PT005H.grib2 2026-04-11 04:00 487K
20260411T00Z_MSC_GDPS_SoilTemp_Sfc_LatLon0.15_PT005H.grib2 2026-04-11 04:00 566K
20260411T00Z_MSC_GDPS_SoilVolumetricWaterContent_DBS-0to10cm_LatLon0.15_PT005H.grib2 2026-04-11 04:00 549K
20260411T00Z_MSC_GDPS_SoilVolumetricWaterContent_DBS-0to1cm_LatLon0.15_PT005H.grib2 2026-04-11 04:00 648K
20260411T00Z_MSC_GDPS_SpecificHumidity_AGL-120m_LatLon0.15_PT005H.grib2 2026-04-11 04:00 1.1M
20260411T00Z_MSC_GDPS_SpecificHumidity_AGL-2m_LatLon0.15_PT005H.grib2 2026-04-11 04:00 1.2M
20260411T00Z_MSC_GDPS_SpecificHumidity_AGL-40m_LatLon0.15_PT005H.grib2 2026-04-11 04:00 1.1M
20260411T00Z_MSC_GDPS_SpecificHumidity_AGL-80m_LatLon0.15_PT005H.grib2 2026-04-11 04:00 1.1M
20260411T00Z_MSC_GDPS_SpecificHumidity_Sfc_LatLon0.15_PT005H.grib2 2026-04-11 04:00 644K
20260411T00Z_MSC_GDPS_TotalCloudCover_Sfc_LatLon0.15_PT005H.grib2 2026-04-11 04:00 822K
20260411T00Z_MSC_GDPS_UVIndex-ClearSky_Sfc_LatLon0.15_PT005H.grib2 2026-04-11 05:05 1.0M
20260411T00Z_MSC_GDPS_UVIndex_Sfc_LatLon0.15_PT005H.grib2 2026-04-11 05:05 1.4M
20260411T00Z_MSC_GDPS_UpwardLongwaveRadiationFlux_NTAtm_LatLon0.15_PT005H.grib2 2026-04-11 04:00 805K
20260411T00Z_MSC_GDPS_WindDir_AGL-10m_LatLon0.15_PT005H.grib2 2026-04-11 04:00 1.3M
20260411T00Z_MSC_GDPS_WindDir_AGL-120m_LatLon0.15_PT005H.grib2 2026-04-11 04:00 1.3M
20260411T00Z_MSC_GDPS_WindDir_AGL-40m_LatLon0.15_PT005H.grib2 2026-04-11 04:00 1.4M
20260411T00Z_MSC_GDPS_WindDir_AGL-80m_LatLon0.15_PT005H.grib2 2026-04-11 04:00 1.3M
20260411T00Z_MSC_GDPS_WindDir_IsbL-0700_LatLon0.15_PT005H.grib2 2026-04-11 04:00 1.6M
20260411T00Z_MSC_GDPS_WindGust-Max_AGL-10m_LatLon0.15_PT005H.grib2 2026-04-11 04:00 2.2M
20260411T00Z_MSC_GDPS_WindGust-Min_AGL-10m_LatLon0.15_PT005H.grib2 2026-04-11 04:00 2.2M
20260411T00Z_MSC_GDPS_WindGust_AGL-10m_LatLon0.15_PT005H.grib2 2026-04-11 04:00 2.2M
20260411T00Z_MSC_GDPS_WindSpeed_AGL-10m_LatLon0.15_PT005H.grib2 2026-04-11 04:00 1.1M
20260411T00Z_MSC_GDPS_WindSpeed_AGL-120m_LatLon0.15_PT005H.grib2 2026-04-11 04:00 1.2M
20260411T00Z_MSC_GDPS_WindSpeed_AGL-40m_LatLon0.15_PT005H.grib2 2026-04-11 04:00 1.2M
20260411T00Z_MSC_GDPS_WindSpeed_AGL-80m_LatLon0.15_PT005H.grib2 2026-04-11 04:00 1.2M
20260411T00Z_MSC_GDPS_WindSpeed_IsbL-0700_LatLon0.15_PT005H.grib2 2026-04-11 04:00 1.5M
20260411T00Z_MSC_GDPS_WindU_AGL-10m_LatLon0.15_PT005H.grib2 2026-04-11 04:00 1.6M
20260411T00Z_MSC_GDPS_WindU_AGL-120m_LatLon0.15_PT005H.grib2 2026-04-11 04:00 964K
20260411T00Z_MSC_GDPS_WindU_AGL-40m_LatLon0.15_PT005H.grib2 2026-04-11 04:00 957K
20260411T00Z_MSC_GDPS_WindU_AGL-80m_LatLon0.15_PT005H.grib2 2026-04-11 04:00 963K
20260411T00Z_MSC_GDPS_WindU_IsbL-0700_LatLon0.15_PT005H.grib2 2026-04-11 04:00 1.2M
20260411T00Z_MSC_GDPS_WindV_AGL-10m_LatLon0.15_PT005H.grib2 2026-04-11 04:00 1.3M
20260411T00Z_MSC_GDPS_WindV_AGL-120m_LatLon0.15_PT005H.grib2 2026-04-11 04:00 961K
20260411T00Z_MSC_GDPS_WindV_AGL-40m_LatLon0.15_PT005H.grib2 2026-04-11 04:00 953K
20260411T00Z_MSC_GDPS_WindV_AGL-80m_LatLon0.15_PT005H.grib2 2026-04-11 04:00 959K
20260411T00Z_MSC_GDPS_WindV_IsbL-0700_LatLon0.15_PT005H.grib2 2026-04-11 04:00 1.2M